TimeCST,TemperatureF,Dew PointF,Humidity,Sea Level PressureIn,VisibilityMPH,Wind Direction,Wind SpeedMPH,Gust SpeedMPH,PrecipitationIn,Events,Conditions,WindDirDegrees,DateUTC
12:15 AM,6.8,-0.4,72,30.03,10.0,SSW,12.7,-,N/A,,Clear,210,2014-02-08 06:15:00
12:35 AM,3.2,-2.2,78,30.03,10.0,SSW,9.2,-,N/A,,Clear,210,2014-02-08 06:35:00
12:55 AM,3.2,-2.2,78,30.03,10.0,SSW,9.2,-,N/A,,Clear,210,2014-02-08 06:55:00
1:15 AM,3.2,-0.4,85,30.03,10.0,SSW,9.2,-,N/A,,Clear,210,2014-02-08 07:15:00
1:35 AM,5.0,-0.4,78,30.02,10.0,SSW,10.4,-,N/A,,Clear,210,2014-02-08 07:35:00
1:55 AM,3.2,-0.4,85,30.02,10.0,SSW,9.2,-,N/A,,Clear,210,2014-02-08 07:55:00
2:15 AM,3.2,-2.2,78,30.02,10.0,SSW,10.4,-,N/A,,Clear,200,2014-02-08 08:15:00
2:35 AM,3.2,-2.2,78,30.02,10.0,SSW,9.2,-,N/A,,Clear,200,2014-02-08 08:35:00
2:55 AM,3.2,-0.4,85,30.02,10.0,South,6.9,-,N/A,,Clear,190,2014-02-08 08:55:00
3:15 AM,3.2,-2.2,78,30.02,10.0,South,5.8,-,N/A,,Clear,190,2014-02-08 09:15:00
3:35 AM,3.2,-0.4,85,30.01,10.0,South,5.8,-,N/A,,Partly Cloudy,190,2014-02-08 09:35:00
3:55 AM,3.2,-0.4,85,30.01,10.0,South,4.6,-,N/A,,Mostly Cloudy,180,2014-02-08 09:55:00
4:15 AM,5.0,-0.4,78,30.00,10.0,South,3.5,-,N/A,,Scattered Clouds,170,2014-02-08 10:15:00
4:35 AM,3.2,-0.4,85,30.00,10.0,ESE,3.5,-,N/A,,Mostly Cloudy,120,2014-02-08 10:35:00
4:55 AM,5.0,1.4,85,30.00,10.0,SSE,3.5,-,N/A,,Overcast,150,2014-02-08 10:55:00
5:15 AM,6.8,1.4,79,30.00,10.0,South,3.5,-,N/A,,Overcast,170,2014-02-08 11:15:00
5:35 AM,6.8,1.4,79,30.01,10.0,SSW,3.5,-,N/A,,Overcast,200,2014-02-08 11:35:00
5:55 AM,6.8,1.4,79,30.00,10.0,South,3.5,-,N/A,,Overcast,180,2014-02-08 11:55:00
6:15 AM,8.6,3.2,79,30.00,10.0,Calm,Calm,-,N/A,,Overcast,0,2014-02-08 12:15:00
6:35 AM,8.6,3.2,79,30.00,10.0,Calm,Calm,-,N/A,,Overcast,0,2014-02-08 12:35:00
6:55 AM,8.6,3.2,79,30.01,10.0,Calm,Calm,-,N/A,,Overcast,0,2014-02-08 12:55:00
7:15 AM,8.6,5.0,85,30.01,10.0,SSE,3.5,-,N/A,,Overcast,150,2014-02-08 13:15:00
7:35 AM,8.6,3.2,79,30.01,10.0,Calm,Calm,-,N/A,,Overcast,0,2014-02-08 13:35:00
7:55 AM,8.6,3.2,79,30.01,10.0,Calm,Calm,-,N/A,,Overcast,0,2014-02-08 13:55:00
8:15 AM,8.6,3.2,79,30.01,10.0,Calm,Calm,-,N/A,,Overcast,0,2014-02-08 14:15:00
8:35 AM,8.6,5.0,85,30.01,8.0,SSE,3.5,-,N/A,,Overcast,150,2014-02-08 14:35:00
8:55 AM,10.4,5.0,79,30.01,9.0,SSE,3.5,-,N/A,,Overcast,160,2014-02-08 14:55:00
9:15 AM,10.4,6.8,85,30.01,8.0,SSE,3.5,-,N/A,,Overcast,160,2014-02-08 15:15:00
9:35 AM,10.4,6.8,85,30.02,10.0,South,3.5,-,N/A,,Overcast,180,2014-02-08 15:35:00
9:55 AM,12.2,6.8,79,30.03,10.0,Calm,Calm,-,N/A,,Overcast,0,2014-02-08 15:55:00
10:15 AM,12.2,6.8,79,30.02,10.0,SSW,3.5,-,N/A,,Overcast,200,2014-02-08 16:15:00
10:35 AM,15.8,8.6,73,30.02,10.0,Calm,Calm,-,N/A,,Overcast,0,2014-02-08 16:35:00
10:55 AM,15.8,6.8,68,30.02,10.0,Calm,Calm,-,N/A,,Overcast,0,2014-02-08 16:55:00
11:15 AM,14.0,6.8,73,30.03,5.0,Calm,Calm,-,N/A,,Mostly Cloudy,0,2014-02-08 17:15:00
11:35 AM,14.0,6.8,73,30.04,8.0,West,4.6,-,N/A,,Mostly Cloudy,280,2014-02-08 17:35:00
11:55 AM,15.8,8.6,73,30.03,8.0,West,4.6,-,N/A,,Overcast,260,2014-02-08 17:55:00
12:15 PM,15.8,8.6,73,30.03,10.0,West,5.8,-,N/A,,Overcast,280,2014-02-08 18:15:00
12:35 PM,15.8,8.6,73,30.02,10.0,NW,4.6,-,N/A,,Overcast,320,2014-02-08 18:35:00
12:55 PM,17.6,10.4,73,30.02,5.0,NNW,4.6,-,N/A,,Mostly Cloudy,340,2014-02-08 18:55:00
1:15 PM,17.6,10.4,73,30.02,10.0,NNE,6.9,-,N/A,,Scattered Clouds,20,2014-02-08 19:15:00
1:35 PM,17.6,10.4,73,30.01,9.0,NE,6.9,-,N/A,,Scattered Clouds,50,2014-02-08 19:35:00
1:55 PM,15.8,10.4,79,30.02,10.0,NNE,5.8,-,N/A,,Scattered Clouds,20,2014-02-08 19:55:00
2:15 PM,17.6,12.2,79,30.02,7.0,NNE,5.8,-,N/A,,Mostly Cloudy,20,2014-02-08 20:15:00
2:35 PM,15.8,8.6,73,30.03,5.0,North,8.1,-,N/A,,Mostly Cloudy,10,2014-02-08 20:35:00
2:55 PM,15.8,8.6,73,30.04,10.0,North,8.1,-,N/A,,Mostly Cloudy,10,2014-02-08 20:55:00
3:15 PM,15.8,8.6,73,30.04,5.0,North,9.2,-,N/A,,Mostly Cloudy,10,2014-02-08 21:15:00
3:35 PM,15.8,10.4,79,30.05,9.0,North,8.1,-,N/A,,Mostly Cloudy,360,2014-02-08 21:35:00
3:55 PM,15.8,8.6,73,30.06,10.0,NNW,6.9,-,N/A,,Mostly Cloudy,340,2014-02-08 21:55:00
4:15 PM,15.8,10.4,79,30.06,10.0,North,9.2,-,N/A,,Partly Cloudy,10,2014-02-08 22:15:00
4:35 PM,15.8,6.8,68,30.06,10.0,NNE,9.2,-,N/A,,Clear,20,2014-02-08 22:35:00
4:55 PM,14.0,8.6,79,30.07,10.0,North,5.8,-,N/A,,Clear,10,2014-02-08 22:55:00
5:15 PM,14.0,8.6,79,30.08,10.0,North,4.6,-,N/A,,Clear,360,2014-02-08 23:15:00
5:35 PM,12.2,6.8,79,30.09,10.0,North,5.8,-,N/A,,Clear,360,2014-02-08 23:35:00
5:55 PM,12.2,5.0,73,30.10,10.0,North,6.9,-,N/A,,Clear,360,2014-02-08 23:55:00
6:15 PM,10.4,3.2,73,30.11,10.0,NNW,6.9,-,N/A,,Clear,340,2014-02-09 00:15:00
6:35 PM,12.2,6.8,79,30.11,10.0,North,6.9,-,N/A,,Clear,350,2014-02-09 00:35:00
6:55 PM,12.2,6.8,79,30.13,10.0,NNW,6.9,-,N/A,,Scattered Clouds,340,2014-02-09 00:55:00
7:15 PM,12.2,6.8,79,30.13,10.0,NNW,6.9,-,N/A,,Overcast,330,2014-02-09 01:15:00
7:35 PM,12.2,6.8,79,30.14,5.0,NNW,12.7,-,N/A,,Partly Cloudy,340,2014-02-09 01:35:00
7:55 PM,10.4,5.0,79,30.14,10.0,NNW,12.7,-,N/A,,Mostly Cloudy,340,2014-02-09 01:55:00
8:15 PM,10.4,3.2,73,30.15,7.0,NNW,8.1,-,N/A,,Scattered Clouds,330,2014-02-09 02:15:00
8:35 PM,10.4,3.2,73,30.15,10.0,NNW,11.5,-,N/A,,Mostly Cloudy,340,2014-02-09 02:35:00
8:55 PM,8.6,3.2,79,30.16,10.0,NNW,13.8,-,N/A,,Overcast,340,2014-02-09 02:55:00
9:15 PM,8.6,1.4,73,30.16,10.0,North,16.1,-,N/A,,Overcast,350,2014-02-09 03:15:00
9:35 PM,6.8,-0.4,72,30.17,10.0,North,18.4,-,N/A,,Mostly Cloudy,350,2014-02-09 03:35:00
9:55 PM,5.0,-2.2,72,30.18,10.0,NNW,15.0,-,N/A,,Overcast,340,2014-02-09 03:55:00
10:15 PM,3.2,-4.0,72,30.19,10.0,NNW,15.0,-,N/A,,Scattered Clouds,340,2014-02-09 04:15:00
10:35 PM,3.2,-4.0,72,30.19,10.0,NNW,11.5,-,N/A,,Clear,330,2014-02-09 04:35:00
10:55 PM,1.4,-5.8,72,30.20,10.0,NNW,15.0,18.4,N/A,,Clear,330,2014-02-09 04:55:00
11:15 PM,1.4,-5.8,72,30.20,10.0,NW,13.8,-,N/A,,Clear,320,2014-02-09 05:15:00
11:35 PM,-0.4,-5.8,78,30.21,10.0,NW,13.8,-,N/A,,Clear,320,2014-02-09 05:35:00
11:55 PM,-0.4,-7.6,72,30.22,10.0,NW,15.0,-,N/A,,Clear,320,2014-02-09 05:55:00